VK2OU Weather Reports


time (UTC)temp
C
wind
direction
speed
KPH
gust
KPH
rain 1hr
cm
rain 24hr
cm
rain mn
cm
humidity
%
barometer
mb
20260504081521 10 250 1.6 3.2 0.00 0.00 0.00 98
20260504081025 10 0.0 0.0 0.00 0.79 0.79 99
20260504080529 10 276 3.2 8.0 0.00 0.00 0.00 98
20260504050549 12 282 6.4 17.7 0.00 0.00 0.00 96
20260504050521 12 0.0 0.0 0.03 0.66 0.66 99
20260504045530 12 0.0 0.0 0.03 0.66 0.66 99
20260504045521 12 283 8.0 20.9 0.00 0.00 0.00 95
20260504044557 12 0.0 0.0 0.03 0.66 0.66 99
20260504044549 12 285 9.7 17.7 0.00 0.00 0.00 96
20260504043547 13 0.0 0.0 0.03 0.66 0.66 99
20260504043541 12 287 11.3 24.1 0.00 0.00 0.00 96
20260504042534 13 0.0 0.0 0.03 0.66 0.66 99
20260504042529 13 283 8.0 17.7 0.00 0.00 0.00 96
20260504041523 13 0.0 3.2 0.00 0.64 0.64 99
20260504041521 13 286 11.3 20.9 0.00 0.00 0.00 95
20260504040532 13 270 0.0 6.4 0.00 0.64 0.64 99
20260504035521 14 0.0 0.0 0.00 0.64 0.64 99
20260504034553 14 0.0 0.0 0.00 0.64 0.64 99
20260504033539 14 0.0 0.0 0.00 0.64 0.64 99
20260504033521 13 282 9.7 20.9 0.00 0.00 0.00 94
20260504032530 14 0.0 1.6 0.00 0.64 0.64 99
20260504031555 14 0.0 0.0 0.00 0.64 0.64 99
20260504031522 14 274 6.4 17.7 0.00 0.00 0.00 96
20260504030529 14 277 8.0 16.1 0.00 0.00 0.00 96
20260504030524 14 0.0 0.0 0.00 0.64 0.64 99
20260504025532 14 0.0 0.0 0.00 0.64 0.64 99
20260504025521 14 283 9.7 20.9 0.00 0.00 0.00 96
20260504024529 14 281 6.4 14.5 0.00 0.00 0.00 96
20260504024521 14 0.0 0.0 0.00 0.64 0.64 99
20260504023549 14 0.0 0.0 0.00 0.64 0.64 99
20260504023541 14 294 8.0 14.5 0.00 0.00 0.00 96
20260504022536 14 338 1.6 12.9 0.00 0.64 0.64 99
20260504022529 14 289 8.0 17.7 0.00 0.00 0.00 95
20260504021525 14 0.0 0.0 0.00 0.64 0.64 99
20260504021522 14 304 8.0 17.7 0.00 0.00 0.00 95
20260504020534 14 270 0.0 3.2 0.00 0.64 0.64 99
20260504020529 14 260 4.8 12.9 0.00 0.00 0.00 94
20260504015524 14 293 1.6 11.3 0.00 0.64 0.64 99
20260504014531 14 319 0.0 3.2 0.00 0.64 0.64 99
20260504014528 14 290 8.0 25.7 0.00 0.00 0.00 93
20260504013521 14 288 8.0 20.9 0.00 0.00 0.00 94
20260504012529 13 314 3.2 16.1 0.03 0.64 0.64 99
20260504011536 13 299 3.2 17.7 0.03 0.64 0.64 99
20260504011523 14 287 11.3 25.7 0.00 0.00 0.00 95
20260504010529 14 289 8.0 16.1 0.00 0.00 0.00 95
20260504010525 13 270 0.0 4.8 0.03 0.64 0.64 99
20260504005533 13 278 1.6 8.0 0.03 0.64 0.64 99
20260504005521 14 285 8.0 24.1 0.00 0.00 0.00 95
20260504004529 13 297 11.3 24.1 0.00 0.00 0.00 96
20260504004525 13 293 4.8 14.5 0.03 0.64 0.64 99
20260504003530 13 307 1.6 6.4 0.00 0.61 0.61 99
20260504003523 13 298 9.7 20.9 0.00 0.00 0.00 97
20260504002549 13 304 8.0 16.1 0.00 0.00 0.00 97
20260504002540 13 321 1.6 9.7 0.00 0.61 0.61 99
20260504001528 13 315 1.6 8.0 0.03 0.61 0.61 99
20260504001522 13 306 9.7 17.7 0.00 0.00 0.00 98
20260504000535 13 279 1.6 17.7 0.05 0.61 0.61 99
20260504000531 13 294 9.7 24.1 0.00 0.00 0.00 98
20260503235525 13 293 1.6 17.7 0.08 0.61 0.61 99
20260503235523 13 292 8.0 22.5 0.00 0.00 0.00 98
20260503234552 13 338 1.6 8.0 0.10 0.61 0.61 99
20260503234549 13 302 6.4 14.5 0.00 0.00 0.00 98
20260503233522 13 293 0.0 4.8 0.13 0.61 0.61 99
20260503233520 13 298 6.4 22.5 0.00 0.00 0.00 98
20260503232550 13 0.0 0.0 0.13 0.61 0.61 99
20260503231521 13 313 8.0 16.1 0.00 0.00 0.00 98
20260503230550 13 316 8.0 22.5 0.00 0.00 0.00 98
20260503225534 13 0.0 4.8 0.10 0.53 0.53 99
20260503225523 13 298 6.4 12.9 0.00 0.00 0.00 98
20260503224529 13 290 8.0 16.1 0.00 0.00 0.00 98
20260503224525 13 0.0 0.0 0.08 0.51 0.51 99
20260503223532 13 0.0 1.6 0.05 0.48 0.48 99
20260503223523 13 291 8.0 22.5 0.00 0.00 0.00 98
20260503222529 13 289 6.4 12.9 0.00 0.00 0.00 98
20260503222522 13 0.0 0.0 0.05 0.48 0.48 99
20260503221531 13 299 1.6 16.1 0.00 0.43 0.43 99
20260503221525 13 298 9.7 20.9 0.00 0.00 0.00 98
20260503220537 13 0.0 0.0 0.00 0.43 0.43 99
20260503220529 13 310 6.4 22.5 0.00 0.00 0.00 98
20260503215526 13 0.0 0.0 0.00 0.43 0.43 99
20260503215521 13 299 6.4 17.7 0.00 0.00 0.00 98
20260503214534 13 293 0.0 6.4 0.00 0.43 0.43 99
20260503214529 13 285 9.7 22.5 0.00 0.00 0.00 98
20260503213525 13 303 8.0 14.5 0.00 0.00 0.00 98
20260503212533 13 315 0.0 1.6 0.00 0.43 0.43 99
20260503211521 13 0.0 0.0 0.00 0.43 0.43 99
20260503210530 13 295 9.7 20.9 0.00 0.00 0.00 99
20260503205539 13 0.0 0.0 0.00 0.43 0.43 99
20260503205521 13 282 4.8 12.9 0.00 0.00 0.00 99
20260503204534 13 291 6.4 14.5 0.00 0.00 0.00 99
20260503204526 13 0.0 0.0 0.00 0.43 0.43 99
20260503203554 13 0.0 0.0 0.00 0.43 0.43 99
20260503203548 13 286 4.8 12.9 0.00 0.00 0.00 99
20260503202529 13 303 4.8 12.9 0.00 0.00 0.00 99
20260503202523 13 0.0 0.0 0.03 0.43 0.43 99
20260503201531 13 0.0 0.0 0.03 0.43 0.43 99
20260503201521 13 277 4.8 9.7 0.00 0.00 0.00 99
20260503200529 13 287 6.4 17.7 0.00 0.00 0.00 99
20260503200522 13 0.0 0.0 0.03 0.43 0.43 99
20260503195549 13 0.0 0.0 0.03 0.43 0.43 99
20260503195545 13 289 4.8 11.3 0.00 0.00 0.00 99
20260503194536 13 0.0 0.0 0.03 0.43 0.43 99
20260503194534 13 283 6.4 16.1 0.00 0.00 0.00 99
20260503193546 13 0.0 0.0 0.03 0.43 0.43 99
20260503193542 13 256 3.2 8.0 0.00 0.00 0.00 99
20260503192534 13 0.0 0.0 0.00 0.41 0.41 99
20260503192529 13 268 3.2 4.8 0.00 0.00 0.00 98
20260503191523 13 0.0 0.0 0.00 0.41 0.41 99
20260503191521 13 273 3.2 9.7 0.00 0.00 0.00 98
20260503190531 13 0.0 0.0 0.03 0.41 0.41 99
20260503190529 13 268 3.2 9.7 0.00 0.00 0.00 98
20260503185522 13 266 3.2 9.7 0.00 0.00 0.00 98
20260503184529 13 256 3.2 8.0 0.00 0.00 0.00 98
20260503183535 13 0.0 0.0 0.08 0.41 0.41 99
20260503183521 13 284 6.4 14.5 0.00 0.00 0.00 98
20260503182549 13 273 4.8 11.3 0.00 0.00 0.00 98
20260503182544 13 0.0 0.0 0.10 0.41 0.41 99
20260503181553 13 0.0 0.0 0.10 0.41 0.41 99
20260503181523 13 269 4.8 12.9 0.00 0.00 0.00 98
20260503180549 13 267 3.2 9.7 0.00 0.00 0.00 98
20260503180545 13 0.0 0.0 0.08 0.38 0.38 99
20260503175530 13 0.0 0.0 0.08 0.38 0.38 99
20260503175521 13 274 3.2 8.0 0.00 0.00 0.00 98
20260503174529 13 276 3.2 8.0 0.00 0.00 0.00 98
20260503174520 13 0.0 0.0 0.08 0.36 0.36 99
20260503173548 13 0.0 0.0 0.08 0.33 0.33 99
20260503173523 13 280 4.8 14.5 0.00 0.00 0.00 98
20260503172535 13 0.0 0.0 0.05 0.30 0.30 99
20260503172532 13 267 4.8 9.7 0.00 0.00 0.00 98
20260503171525 13 0.0 0.0 0.08 0.30 0.30 99
20260503171522 13 274 6.4 12.9 0.00 0.00 0.00 98
20260503170613 13 0.0 0.0 0.10 0.30 0.30 99
20260503150534 14 0.0 0.0 0.15 0.15 0.15 99
20260503150529 14 285 4.8 11.3 0.00 0.00 0.00 96
20260503130536 15 0.0 0.0 0.00 0.00 0.00 99
20260503130534 15 263 4.8 9.7 0.00 0.00 0.00 87
20260503110531 15 236 1.6 3.2 0.00 0.00 0.00 89